Regional Weather Roundup
Issued by NWS Albany, NY

Home | Current Version | Previous Version | Text Only | Print | Product List | Glossary On
Versions: 1 2 3 4 5 6 7 8 9 10 11 12 13 14 15 16 17 18 19 20 21 22 23 24 25 26 27 28 29 30 31 32 33 34 35 36 37 38 39 40 41 42 43 44 45 46 47 48 49 50
000
ASUS41 KALY 161710
RWRALY

NEW YORK STATE HOURLY WEATHER ROUNDUP
NATIONAL WEATHER SERVICE ALBANY NY
100 PM EDT TUE SEP 16 2014

NOTE: "FAIR" INDICATES FEW OR NO CLOUDS BELOW 12,000 FEET WITH NO
SIGNIFICANT WEATHER AND/OR NO OBSTRUCTIONS TO VISIBILITY.

NYZ032-033-038>043-046>054-057>066-NYZ062>081-161800-
EAST


CITY           SKY/WX    TMP DP  RH WIND       PRES   REMARKS
ALBANY         PTSUNNY   62  54  74 W5        30.00F
GLENS FALLS    CLOUDY    62  54  74 S6        29.98S
POUGHKEEPSIE   MOSUNNY   68  55  63 N5        29.98F
NEWBURGH       MOSUNNY   64  57  77 CALM      30.01F
MONTGOMERY     PTSUNNY   66  54  65 CALM      29.98F
WHITE PLAINS   MOSUNNY   64  57  78 CALM      29.98F
ISLIP          LGT RAIN  60  58  92 E3        29.98F FOG
NEW YORK CITY  PTSUNNY   65  58  78 NE7       29.99F
CENTRAL PARK   MOSUNNY   64  58  80 CALM      30.02F
$$

NYZ005>009-017-018-044>046-055-056-161800-
CENTRAL


CITY           SKY/WX    TMP DP  RH WIND       PRES   REMARKS
FULTON         SUNNY     63  49  60 W14       30.03F
SYRACUSE       MOSUNNY   65  49  56 NW16      30.03S
ROME           CLOUDY    59  53  80 VRB5      30.03F
ELMIRA         CLOUDY    61  53  75 SW5       30.05F
BINGHAMTON     CLOUDY    57  51  80 NW7       30.05S
MONTICELLO     CLOUDY    59  50  72 NW12      30.02F
$$

NYZ026>034-041>043-161800-
NORTH


CITY           SKY/WX    TMP DP  RH WIND       PRES   REMARKS
WATERTOWN      SUNNY     63  48  58 W8        30.01F
FORT DRUM      NOT AVBL
MASSENA        MOSUNNY   62  51  67 W9        29.99F
SARANAC LAKE   PTSUNNY   57  47  69 W7        29.98S
PLATTSBURGH    MOSUNNY   62  52  69 S6        29.96F
$$

NYZ001>004-010>016-019>021-161800-
WEST


CITY           SKY/WX    TMP DP  RH WIND       PRES   REMARKS
NIAGARA FALLS  MOSUNNY   62  44  51 NW13      30.07F
BUFFALO        MOSUNNY   63  42  46 NW8       30.07F
DUNKIRK        SUNNY     61  47  59 NW9G17    30.10S
JAMESTOWN      PTSUNNY   57  45  62 NW7       30.10S
WELLSVILLE     CLOUDY    56  46  69 NW9       30.09S
ROCHESTER      MOSUNNY   65  47  52 NW12      30.05F
PENN YAN       PTSUNNY   63  47  55 NW9       30.06F
$$

             KEY
       WCI = WIND CHILL INDEX
       VSB = VISIBILITY
       HX  = HEAT INDEX
$$


USA.gov is the U.S. government's official web portal to all federal, state and local government web resources and services.